This is the latest recevied weather packets stored in our database for station/object VE3TEJ. If no packets are shown the sender has not sent any weather packets the latest 10 day(s).
| Time | Temp. | Humidity | Pressure | Rain* | Wind** | Luminosity | Snow |
|---|---|---|---|---|---|---|---|
| 1778155657 | 4.44° C | 72% | 1011.3 hPa | 0 mm | - | - | - |
| 1778155357 | 5° C | 72% | 1011 hPa | 0 mm | - | - | - |
| 1778155059 | 4.44° C | 72% | 1011.2 hPa | 0 mm | - | - | - |
| 1778154758 | 4.44° C | 72% | 1011 hPa | 0 mm | - | - | - |
| 1778154458 | 4.44° C | 72% | 1011.1 hPa | 0 mm | - | - | - |
| 1778154158 | 4.44° C | 72% | 1011 hPa | 0 mm | - | - | - |
| 1778153857 | 4.44° C | 72% | 1010.9 hPa | 0 mm | - | - | - |
| 1778153557 | 3.89° C | 73% | 1010.7 hPa | 0 mm | - | - | - |
| 1778153258 | 3.89° C | 73% | 1010.9 hPa | 0 mm | - | - | - |
| 1778152958 | 3.89° C | 73% | 1010.8 hPa | 0 mm | - | - | - |
| 1778152657 | 3.89° C | 72% | 1010.8 hPa | 0 mm | - | - | - |
| 1778152359 | 4.44° C | 71% | 1010.6 hPa | 0 mm | - | - | - |
| 1778152058 | 3.89° C | 72% | 1010.7 hPa | 0 mm | - | - | - |
| 1778151758 | 3.89° C | 72% | 1010.6 hPa | 0 mm | - | - | - |
| 1778151458 | 3.33° C | 73% | 1010.9 hPa | 0 mm | - | - | - |
| 1778151157 | 2.78° C | 76% | 1010.5 hPa | 0 mm | - | - | - |
| 1778150859 | 2.22° C | 77% | 1010.7 hPa | 0 mm | - | - | - |
| 1778150558 | 2.22° C | 78% | 1010.8 hPa | 0 mm | - | - | - |
| 1778150258 | 2.22° C | 79% | 1010.6 hPa | 0 mm | - | - | - |
| 1778149957 | 1.67° C | 80% | 1010.8 hPa | 0 mm | - | - | - |
| 1778149657 | 1.67° C | 80% | 1010.7 hPa | 0 mm | - | - | - |
| 1778149359 | 1.67° C | 79% | 1010.6 hPa | 0 mm | - | - | - |
| 1778149058 | 2.22° C | 78% | 1010.7 hPa | 0 mm | - | - | - |
| 1778148758 | 2.22° C | 78% | 1010.7 hPa | 0 mm | - | - | - |
| 1778148457 | 2.22° C | 77% | 1010.6 hPa | 0 mm | - | - | - |
* Rain latest hour (hover to see other rain measurements)
** Current wind speed in m/s (hover to see current wind gust speed)